Back to catalog

STARLINK-34749

AliveCommunicationsSSO
NORAD 65675·PAYLOAD·🇺🇸 United States

Launched Sep 19, 2025 from Vandenberg Space Force Base

Loading…

Next Passes (next 24 hours)

TLE

FreshSource: CelesTrak SupGP

Epoch: Sep 15, 2026, 03:56 UTC

1 65675C 25211Z   26258.16437500 -.00021574  00000+0 -67009-3 0  2582
2 65675  97.2831 298.5001 0001218  93.4080  39.4828 15.33432303    14

Track STARLINK-34749 in real time with AllMySat

Download on the App Store